TimeMDT,TemperatureF,Dew PointF,Humidity,Sea Level PressureIn,VisibilityMPH,Wind Direction,Wind SpeedMPH,Gust SpeedMPH,PrecipitationIn,Events,Conditions,WindDirDegrees,DateUTC
12:15 AM,35.6,30.2,81,29.87,10.0,Calm,Calm,-,N/A,,Clear,0,2013-10-09 06:15:00
12:35 AM,35.6,30.2,81,29.87,10.0,Calm,Calm,-,N/A,,Clear,0,2013-10-09 06:35:00
12:55 AM,35.6,30.2,81,29.86,10.0,Calm,Calm,-,N/A,,Clear,0,2013-10-09 06:55:00
1:15 AM,35.6,30.2,81,29.87,10.0,Calm,Calm,-,N/A,,Clear,0,2013-10-09 07:15:00
1:35 AM,33.8,30.2,87,29.87,10.0,Calm,Calm,-,N/A,,Clear,0,2013-10-09 07:35:00
1:55 AM,35.6,30.2,81,29.86,10.0,NW,4.6,-,N/A,,Clear,320,2013-10-09 07:55:00
2:15 AM,33.8,28.4,81,29.86,10.0,NNW,4.6,-,N/A,,Clear,330,2013-10-09 08:15:00
2:35 AM,35.6,30.2,81,29.87,10.0,WNW,4.6,-,N/A,,Clear,290,2013-10-09 08:35:00
2:55 AM,33.8,28.4,81,29.88,10.0,Calm,Calm,-,N/A,,Clear,0,2013-10-09 08:55:00
3:15 AM,35.6,30.2,81,29.87,10.0,WNW,5.8,-,N/A,,Clear,300,2013-10-09 09:15:00
3:35 AM,35.6,30.2,81,29.87,10.0,NW,5.8,-,N/A,,Clear,310,2013-10-09 09:35:00
3:55 AM,35.6,30.2,81,29.86,10.0,NW,5.8,-,N/A,,Clear,320,2013-10-09 09:55:00
4:15 AM,35.6,30.2,81,29.86,10.0,NW,5.8,-,N/A,,Clear,310,2013-10-09 10:15:00
4:35 AM,33.8,28.4,81,29.86,10.0,NW,6.9,-,N/A,,Clear,310,2013-10-09 10:35:00
4:55 AM,33.8,28.4,81,29.86,10.0,NW,6.9,-,N/A,,Clear,320,2013-10-09 10:55:00
5:15 AM,33.8,28.4,81,29.86,10.0,NW,5.8,-,N/A,,Clear,310,2013-10-09 11:15:00
5:35 AM,33.8,28.4,81,29.86,10.0,NW,5.8,-,N/A,,Clear,320,2013-10-09 11:35:00
5:55 AM,33.8,28.4,81,29.86,10.0,NW,6.9,-,N/A,,Clear,310,2013-10-09 11:55:00
6:15 AM,33.8,28.4,81,29.86,10.0,NW,9.2,-,N/A,,Clear,320,2013-10-09 12:15:00
6:35 AM,33.8,28.4,81,29.86,10.0,NW,6.9,-,N/A,,Scattered Clouds,320,2013-10-09 12:35:00
6:47 AM,35.6,26.6,70,29.86,10.0,WNW,5.8,-,N/A,,Scattered Clouds,300,2013-10-09 12:47:00
6:55 AM,33.8,28.4,81,29.86,10.0,NW,8.1,-,N/A,,Mostly Cloudy,310,2013-10-09 12:55:00
7:47 AM,35.6,26.6,70,29.86,10.0,WNW,8.1,-,N/A,,Scattered Clouds,300,2013-10-09 13:47:00
8:47 AM,35.6,26.6,70,29.87,10.0,WNW,9.2,-,N/A,,Mostly Cloudy,290,2013-10-09 14:47:00
9:48 AM,39.2,26.6,61,29.86,10.0,WNW,11.5,-,N/A,,Overcast,300,2013-10-09 15:48:00
10:47 AM,44.6,26.6,49,29.86,10.0,WNW,11.5,-,N/A,,Overcast,300,2013-10-09 16:47:00
11:47 AM,51.8,26.6,38,29.85,10.0,NW,11.5,-,N/A,,Scattered Clouds,310,2013-10-09 17:47:00
12:47 PM,53.6,32.0,44,29.85,10.0,SE,11.5,-,N/A,,Scattered Clouds,130,2013-10-09 18:47:00
1:47 PM,55.4,30.2,38,29.82,10.0,SE,10.4,-,N/A,,Scattered Clouds,130,2013-10-09 19:47:00
2:47 PM,57.2,30.2,36,29.81,10.0,South,12.7,-,N/A,,Scattered Clouds,180,2013-10-09 20:47:00
3:47 PM,60.8,28.4,29,29.80,10.0,South,11.5,-,N/A,,Scattered Clouds,180,2013-10-09 21:47:00
4:50 PM,60.8,28.4,29,29.80,10.0,SSE,12.7,-,N/A,,Scattered Clouds,150,2013-10-09 22:50:00
5:50 PM,60.8,26.6,27,29.80,10.0,ESE,8.1,-,N/A,,Scattered Clouds,120,2013-10-09 23:50:00
6:47 PM,53.6,30.2,41,29.80,10.0,South,5.8,-,N/A,,Scattered Clouds,180,2013-10-10 00:47:00
7:47 PM,53.6,28.4,38,29.81,10.0,ESE,8.1,-,N/A,,Scattered Clouds,120,2013-10-10 01:47:00
8:49 PM,50.0,30.2,47,29.82,10.0,West,5.8,-,N/A,,Scattered Clouds,280,2013-10-10 02:49:00
9:47 PM,48.2,28.4,46,29.83,10.0,WNW,5.8,-,N/A,,Scattered Clouds,290,2013-10-10 03:47:00
10:47 PM,46.4,28.4,50,29.83,10.0,WNW,4.6,-,N/A,,Scattered Clouds,300,2013-10-10 04:47:00
11:15 PM,44.6,30.2,57,29.84,10.0,NNW,3.5,-,N/A,,Mostly Cloudy,330,2013-10-10 05:15:00
11:35 PM,44.6,30.2,57,29.84,10.0,WNW,4.6,-,N/A,,Mostly Cloudy,300,2013-10-10 05:35:00
11:55 PM,44.6,30.2,57,29.84,10.0,NW,4.6,-,N/A,,Mostly Cloudy,310,2013-10-10 05:55:00